Simultaneous Nadir Overpasses (SNOs) Predictions

Prediction of SNOs between NOAA-20 and LANDSAT-8 Satellite Orbit:

Table of predicted SNOs for the next 14.0 days since TLE Epoch: 11/11/2023
Index Date (NOAA-20) Time (NOAA-20) Lat,Lon (NOAA-20) SZA (NOAA-20 ) Date (LANDSAT-8) Time (LANDSAT-8) Lat,Lon (LANDSAT-8) SZA (LANDSAT-8 ) Distance(km) Time Diff (sec)
1 11/11/2023 06:32:36 -70.25,-102.01 92.50 11/11/2023 06:33:48 -70.23,-101.79 92.53 8.67 72
2 11/11/2023 07:23:19 70.07, 65.56 87.34 11/11/2023 07:23:16 70.07, 65.63 87.34 2.67 3
3 11/11/2023 08:14:00 -69.93,-126.91 92.80 11/11/2023 08:12:46 -69.96,-126.89 92.77 2.88 74
4 11/13/2023 22:49:30 -70.13, 13.93 91.90 11/13/2023 22:50:20 -70.14, 13.96 91.89 1.95 50
5 11/13/2023 23:40:14 70.01,-178.58 88.00 11/13/2023 23:39:48 69.99,-178.62 87.97 2.94 26
6 11/14/2023 00:30:39 -69.02, -9.83 92.99 11/14/2023 00:29:33 -69.05, -12.25 92.96 96.27 66
7 11/16/2023 14:16:02 71.11, -39.21 89.77 11/16/2023 14:17:07 71.01, -36.50 89.68 98.34 65
8 11/16/2023 15:06:26 -70.07, 129.79 91.27 11/16/2023 15:06:52 -70.08, 129.75 91.26 2.17 26
9 11/16/2023 15:57:10 69.95, -62.73 88.63 11/16/2023 15:56:19 69.98, -62.76 88.65 2.70 51
10 11/19/2023 06:32:41 70.17, 78.07 89.47 11/19/2023 06:33:53 70.15, 78.08 89.45 2.37 72
11 11/19/2023 07:23:23 -70.07,-114.46 90.62 11/19/2023 07:23:23 -70.04,-114.43 90.65 3.22 0
12 11/19/2023 08:14:04 69.80, 53.26 89.12 11/19/2023 08:12:51 69.88, 52.98 89.20 13.54 73
13 11/21/2023 22:49:37 70.14,-166.11 90.04 11/21/2023 22:50:23 70.13,-166.06 90.04 1.69 46
14 11/21/2023 23:40:19 -70.03, 1.37 90.06 11/21/2023 23:39:53 -70.03, 1.42 90.06 2.18 26
15 11/24/2023 14:16:05 -71.10, 140.79 88.43 11/24/2023 14:17:11 -70.96, 143.40 88.58 95.85 66
16 11/24/2023 15:06:31 70.06, -50.22 90.53 11/24/2023 15:06:52 70.08, -50.26 90.55 3.03 21
17 11/24/2023 15:57:14 -70.00, 117.18 89.53 11/24/2023 15:56:22 -69.98, 117.23 89.55 3.36 52



Historial Predications of SNOs between NOAA-20 and LANDSAT-8
